Theta_e
321 322 323 322 321 321 322 323 323 323 322 322 321 321 321 321 322 323 324 325 325 324 323 322 323 323 315 303 303 320 328 329 318 312 306 304 300 299 295 296 297 295 297 300 301 300 299
324 324 323 322 322 323 323 323 323 323 322 322 321 320 320 321 322 323 324 324 324 323 322 322 322 321 308 297 315 321 321 317 311 308 305 304 302 302 298 296 295 296 297 297 298 299 298
326 325 324 323 324 323 323 323 323 323 323 322 321 320 320 320 322 323 323 324 323 321 322 321 322 317 306 302 315 320 319 313 311 309 305 307 305 301 299 296 299 297 293 295 296 296 296
326 325 324 323 323 324 323 323 323 323 322 321 320 319 319 320 321 322 323 323 321 321 322 320 322 312 298 308 310 314 311 308 310 309 307 307 306 303 300 300 298 293 290 287 295 296 296
326 326 325 325 325 325 324 323 323 322 322 320 319 319 319 320 321 322 322 322 318 321 321 322 312 307 299 310 305 305 306 305 306 306 304 307 304 298 298 292 289 289 285 287 292 297 295
326 325 325 325 325 325 324 323 323 322 321 320 319 319 320 321 321 321 322 322 318 318 318 318 314 298 301 300 304 305 303 306 303 302 300 300 296 291 290 288 282 285 285 289 288 294 293
326 326 325 325 325 324 324 323 323 322 321 320 319 320 321 321 322 323 318 311 307 305 305 304 303 299 305 304 306 303 304 302 302 298 292 295 289 286 289 291 291 289 288 287 290 295 291
326 325 325 325 324 324 323 323 323 323 322 321 320 321 322 322 322 322 314 306 304 305 300 308 308 309 305 305 300 301 303 297 296 291 294 291 287 293 294 294 293 290 287 287 290 294 291
325 325 325 324 324 323 323 322 322 323 322 321 321 321 322 321 321 316 309 306 308 305 298 303 305 304 302 304 301 299 300 297 293 291 292 289 293 297 295 292 290 288 287 287 288 290 290
325 325 324 323 323 322 322 322 321 321 321 321 321 321 321 320 313 313 308 309 309 305 292 297 299 298 300 301 296 299 300 298 295 292 292 291 295 294 292 291 292 287 291 291 289 285 281
325 324 323 322 322 321 321 321 320 320 319 320 320 321 320 319 312 311 310 309 308 303 282 296 295 303 299 296 295 295 298 296 292 292 291 291 291 289 289 291 293 289 290 288 287 284 282
325 324 323 322 322 321 320 320 320 320 320 319 319 320 319 317 314 312 311 309 306 293 284 292 294 294 293 293 293 295 295 295 294 291 291 291 291 291 292 292 292 291 288 287 285 283 278
325 324 323 322 322 321 320 320 321 320 320 319 318 318 316 317 312 312 311 308 294 287 298 291 291 292 292 290 291 292 290 288 287 284 284 288 290 290 292 287 290 288 284 279 276 275 277
324 323 322 322 321 321 321 321 321 320 319 317 317 316 315 316 313 312 309 301 287 293 293 296 292 292 292 292 292 291 289 287 290 288 286 284 283 289 290 290 288 287 287 279 271 274 276
323 323 322 321 322 321 320 318 315 313 312 314 314 310 312 315 315 314 306 292 291 293 297 296 295 291 291 295 294 290 289 289 290 291 286 284 284 289 291 291 292 287 284 288 282 273 274
321 321 320 320 319 316 315 313 312 311 312 312 306 305 306 314 314 310 299 292 295 298 297 297 291 292 287 290 290 289 289 290 290 292 293 289 283 290 288 291 289 288 289 282 281 270 269
314 314 315 315 315 313 312 311 311 310 311 310 303 299 306 313 312 300 289 292 295 298 298 295 291 289 288 289 291 287 288 291 293 290 294 292 288 286 288 287 286 285 284 285 285 282 274
310 309 309 308 309 309 309 310 309 310 310 306 300 293 306 312 294 294 291 294 296 295 298 296 293 291 290 290 289 287 288 291 295 293 289 291 288 278 285 289 289 288 286 286 279 277 278
308 308 307 306 306 305 305 306 308 309 307 302 295 295 305 307 288 289 294 295 296 293 294 294 292 293 293 290 287 289 290 293 294 292 290 291 283 272 277 282 288 286 287 287 286 285 279
307 306 306 305 304 304 303 303 305 307 304 302 294 289 295 300 297 292 291 290 290 295 293 294 293 294 291 289 291 287 288 292 293 293 296 294 286 278 275 277 283 279 282 282 284 276 273
306 305 305 304 303 303 302 301 300 301 300 299 293 288 292 287 291 292 292 291 289 288 293 294 290 291 289 285 287 286 289 289 291 294 291 289 278 282 283 283 281 280 280 281 279 280 275
306 305 304 304 303 303 303 301 301 299 298 295 288 287 288 288 292 291 290 288 287 289 290 288 288 290 290 287 286 281 285 285 285 288 287 287 274 278 272 280 280 277 279 279 279 279 278
302 303 304 303 304 303 302 302 300 300 298 290 290 290 288 287 286 288 288 288 287 289 289 290 290 288 285 284 286 286 285 285 285 283 281 281 276 268 265 276 273 267 275 277 278 279 277
302 302 302 303 302 302 302 302 301 301 298 291 290 288 284 281 286 286 286 289 288 287 286 286 287 285 285 287 285 283 281 281 281 282 284 277 272 268 262 264 261 274 277 277 276 277 275
302 302 302 302 302 302 301 302 302 301 300 291 291 288 284 276 283 283 282 283 284 285 284 283 283 286 286 282 276 270 268 271 274 278 279 282 277 265 264 261 268 274 275 274 273 272 275
302 302 302 302 302 302 302 301 301 301 301 293 291 292 286 279 278 283 282 282 279 278 278 280 282 284 283 280 272 263 263 268 266 271 277 279 279 273 257 261 259 270 274 278 277 268 272
302 302 302 302 301 301 302 302 302 302 302 294 291 293 287 278 282 282 280 281 283 280 275 276 277 278 281 275 261 263 264 273 265 264 264 263 261 270 270 266 265 273 275 278 264 268 272
301 301 301 302 302 302 302 301 302 301 301 297 292 293 287 279 282 285 285 281 281 279 274 274 275 274 273 266 266 272 265 271 268 271 270 268 264 261 259 257 263 277 275 271 275 278 278
301 301 301 301 301 302 302 302 302 301 301 300 292 294 294 284 280 289 288 289 286 285 278 273 275 271 277 270 267 268 263 264 265 262 274 267 271 266 269 268 276 277 277 279 279 277 278
Wind_Speed
13 12 11 10 9 8 7 6 6 6 6 5 5 5 6 6 7 8 10 11 12 12 11 11 9 7 2 1 7 1 4 3 4 3 3 4 2 4 2 2 5 4 3 4 6 8 8
14 13 13 12 11 9 8 8 8 7 7 6 6 6 6 6 7 9 10 11 13 13 10 8 4 2 1 4 4 6 6 3 2 1 2 3 2 4 3 3 2 2 2 5 7 11 7
15 14 14 14 13 11 10 10 9 8 8 7 7 6 7 7 8 9 10 11 12 10 8 6 4 3 1 10 3 5 5 2 0 1 2 3 2 2 2 4 2 2 5 7 10 5 7
16 15 15 16 13 13 11 11 10 9 8 7 7 6 6 7 9 11 11 11 10 6 5 2 5 2 6 1 2 4 3 2 2 2 2 2 4 3 2 1 6 4 1 3 6 3 3
17 15 14 14 12 12 12 11 11 10 9 8 7 6 7 8 10 11 12 11 8 3 2 4 0 2 6 2 3 1 3 2 3 4 3 2 4 3 3 4 5 2 3 5 8 2 3
19 17 16 14 14 13 12 12 11 11 10 9 7 6 8 9 10 11 13 8 3 4 3 4 3 2 2 3 3 2 2 4 3 3 3 3 4 2 3 4 5 5 4 4 5 5 2
19 18 17 16 15 14 13 13 12 11 11 10 8 8 9 9 11 11 7 2 3 1 2 7 5 4 4 2 2 1 1 3 4 2 4 3 5 7 12 10 6 2 3 4 6 9 4
21 19 18 17 16 15 14 13 13 12 11 10 9 9 9 8 11 12 1 1 2 1 6 7 9 5 4 4 3 2 2 5 5 5 5 4 6 13 6 5 6 4 4 7 6 5 2
21 20 19 18 17 16 15 15 14 13 12 11 10 9 8 7 9 6 1 4 3 1 2 7 1 3 4 3 2 6 6 5 4 5 8 9 9 6 7 5 4 3 4 5 8 4 4
22 21 20 20 18 18 17 17 15 14 13 12 11 10 7 2 3 2 1 4 2 2 2 5 2 0 2 1 1 1 2 2 4 10 6 6 5 7 7 6 6 5 3 4 3 3 4
21 21 20 20 19 19 19 18 17 16 14 13 12 10 9 8 2 2 4 6 3 3 5 2 3 0 2 4 6 1 1 1 3 2 5 6 6 3 3 6 8 8 2 2 3 4 2
21 21 23 23 21 20 19 19 18 17 17 15 13 12 12 4 3 2 6 6 4 2 9 3 3 4 3 3 2 3 1 0 1 0 2 5 1 3 6 2 2 4 2 4 2 3 1
23 24 24 22 23 23 21 20 19 19 18 16 16 14 8 2 4 7 6 4 2 6 2 4 4 5 4 6 4 5 5 4 5 4 3 2 5 2 2 2 4 4 5 4 5 2 7
21 21 21 21 21 22 22 22 22 20 18 16 15 15 5 2 4 7 3 3 8 7 5 3 4 5 5 7 5 7 5 3 6 1 2 4 4 7 3 5 6 5 6 6 6 3 5
18 18 19 21 23 20 15 15 21 21 19 16 10 2 4 3 5 3 3 9 8 6 5 7 4 4 5 5 5 5 7 6 3 7 9 5 5 2 2 3 7 4 4 3 2 1 3
15 14 13 13 16 21 21 22 21 19 19 12 5 3 2 1 5 3 3 4 5 6 5 4 8 7 7 6 6 6 7 4 4 1 2 2 3 3 1 4 3 3 1 2 2 1 5
22 21 18 17 15 20 24 26 23 23 15 11 5 4 2 2 2 4 4 6 6 0 5 3 4 4 4 4 7 4 4 1 5 3 5 4 4 4 3 5 5 1 1 2 2 5 5
20 22 22 21 18 15 17 19 20 23 18 4 5 4 3 3 3 3 6 7 3 3 2 3 2 2 4 3 3 5 8 7 6 7 7 2 4 4 8 5 3 6 6 5 4 6 3
14 16 15 18 16 15 12 12 16 17 4 5 4 3 3 2 4 5 3 7 4 4 5 5 7 7 5 7 3 7 5 3 6 5 8 5 1 3 10 4 3 1 2 4 3 3 7
12 14 12 15 15 15 11 10 6 9 4 3 5 4 2 3 3 5 6 8 7 7 6 6 6 5 6 6 5 4 5 4 3 5 7 5 3 7 10 5 3 3 7 1 4 3 3
13 13 12 14 12 13 13 12 3 5 4 3 2 4 6 7 9 7 2 3 13 8 5 7 4 8 7 6 5 6 5 4 4 8 4 6 6 4 6 2 3 4 10 11 6 10 8
10 13 13 13 13 14 16 13 11 3 2 3 3 4 1 3 7 15 13 8 7 7 8 5 5 8 7 7 7 5 6 3 4 2 4 1 2 2 5 2 4 8 18 12 14 16 16
7 7 11 14 17 17 15 17 13 13 8 1 2 1 2 4 6 10 12 17 9 7 1 2 11 6 3 3 4 6 5 6 3 6 4 5 6 4 7 2 4 8 15 16 12 11 7
14 10 10 12 12 12 15 17 17 16 10 3 2 1 3 3 8 11 7 14 15 9 9 2 5 8 5 8 6 7 7 5 1 4 4 6 6 4 5 5 3 10 4 5 8 8 4
15 16 14 14 16 14 14 15 17 16 14 3 3 2 3 2 3 1 4 4 5 2 4 4 4 2 9 6 5 6 7 8 4 8 11 8 6 1 5 6 6 14 6 6 5 8 7
16 17 16 16 15 16 18 16 16 17 16 3 2 2 2 5 4 1 5 6 5 4 3 3 4 5 6 4 4 6 6 5 5 4 2 6 5 7 3 6 11 8 4 6 6 9 8
15 17 16 16 15 16 17 18 19 20 19 5 3 5 3 3 3 3 4 7 5 4 4 4 3 3 3 4 4 4 6 6 5 7 5 4 1 16 15 7 9 7 7 5 6 10 4
20 18 18 17 16 17 18 17 17 16 17 6 3 5 5 3 4 4 3 5 4 4 6 5 6 3 2 3 5 5 4 7 3 5 8 9 8 6 3 1 10 8 2 8 9 3 6
18 18 18 17 17 18 19 20 16 16 15 14 2 3 3 3 4 2 4 4 4 8 8 1 5 5 6 4 1 3 1 1 5 5 2 2 9 8 12 10 5 7 8 10 6 7 6
Wind_Direction
222 220 217 218 215 220 233 236 247 261 271 276 286 295 302 312 319 321 320 317 315 314 309 308 308 317 339 340 258 69 98 119 121 146 220 181 185 180 265 268 358 214 253 298 314 299 275
222 219 221 227 226 229 233 238 239 246 257 264 265 274 285 301 307 312 313 312 314 313 308 301 295 300 195 221 133 144 127 131 144 182 240 208 202 177 245 255 164 324 315 285 266 261 264
222 225 232 235 223 230 234 237 242 240 242 252 255 263 283 298 303 302 301 304 313 310 309 294 232 186 179 238 106 126 144 188 231 232 260 338 138 105 34 333 281 338 327 312 266 265 226
233 229 239 243 235 224 235 231 232 235 237 242 253 259 273 291 295 300 300 301 312 315 334 329 182 242 235 47 335 128 138 44 12 321 80 345 66 89 153 286 360 301 51 317 284 158 280
232 233 232 234 231 221 225 224 232 230 233 234 234 254 273 281 292 297 299 300 286 271 41 125 163 199 272 319 118 15 51 155 70 46 23 22 62 171 12 80 359 306 233 210 314 348 145
228 229 230 227 225 222 223 226 226 233 227 227 224 233 266 280 290 300 308 287 194 301 235 232 250 353 220 200 134 96 9 132 126 111 51 68 50 89 31 108 221 225 233 285 253 276 155
226 225 225 226 224 224 224 225 222 220 223 223 224 235 250 274 293 304 347 357 356 351 214 203 181 237 153 75 105 95 188 124 113 110 149 214 106 203 218 201 207 268 245 262 274 277 304
225 220 221 222 221 217 218 219 220 219 216 218 222 229 256 280 298 308 214 183 192 184 305 249 252 251 117 170 134 226 103 138 152 194 137 66 214 228 223 237 228 235 254 278 287 286 1
221 220 218 219 219 215 214 217 216 215 214 217 217 227 240 272 306 311 156 157 145 133 200 293 249 117 148 144 207 184 158 176 177 198 190 175 218 180 181 250 256 251 229 249 232 309 297
221 219 218 217 215 216 213 214 212 212 213 213 211 217 219 256 317 196 192 167 120 90 329 252 206 5 93 113 186 304 357 193 207 205 228 229 261 256 276 243 160 262 189 234 243 68 223
236 223 218 216 214 215 214 212 208 209 212 209 206 205 202 180 283 205 154 136 116 66 296 237 163 212 96 145 147 224 11 51 221 186 120 236 170 167 162 211 153 226 100 213 220 219 30
234 223 222 216 213 216 216 214 211 208 211 206 200 195 171 175 198 171 121 103 54 96 245 166 120 167 121 172 155 139 117 21 113 68 232 238 332 185 208 223 155 127 40 317 40 109 343
231 234 227 221 220 212 212 213 212 209 210 207 189 172 171 180 175 137 124 88 163 208 279 176 170 169 211 176 178 172 166 188 167 127 230 193 211 190 154 87 22 73 73 322 345 13 219
236 228 217 216 218 218 218 217 217 209 185 155 158 148 169 124 111 106 109 175 209 199 228 160 141 171 189 161 198 186 170 239 229 171 143 189 310 158 178 166 184 184 165 155 233 227 249
236 227 217 217 221 221 206 152 134 132 127 124 114 48 115 116 97 108 170 212 190 193 193 152 107 168 219 209 164 158 204 200 180 172 176 178 235 171 150 150 140 178 164 172 169 79 38
232 233 190 186 165 140 138 140 136 129 136 132 104 76 51 64 110 98 211 224 229 174 141 127 195 175 192 196 170 176 197 172 142 78 337 164 295 300 316 47 358 148 202 44 22 213 253
82 87 91 107 128 138 143 138 140 139 140 134 72 114 196 218 102 83 196 227 254 150 129 178 219 224 198 147 172 198 208 214 147 153 97 117 131 269 108 185 167 96 248 198 184 172 197
73 79 85 91 100 110 121 130 138 139 135 68 119 131 205 194 131 157 193 193 240 205 102 174 93 208 186 148 206 217 209 205 138 144 142 148 157 217 229 266 197 186 223 186 160 265 258
96 96 105 110 110 105 100 113 138 146 120 127 105 112 271 149 172 192 193 213 235 199 187 182 215 194 183 183 222 200 167 328 130 116 156 172 201 9 332 24 23 130 85 89 57 94 225
120 122 127 119 122 114 113 104 149 155 356 55 117 138 151 208 184 192 180 221 213 200 190 182 199 184 169 205 211 217 147 197 99 112 123 105 168 170 215 166 109 285 293 261 168 185 229
144 142 145 134 134 127 125 114 43 96 6 313 110 194 181 185 198 198 143 228 215 208 219 186 227 192 173 196 202 205 185 116 73 157 130 141 202 203 254 300 127 223 259 281 209 239 229
186 173 170 163 165 171 156 143 155 162 72 0 160 158 326 172 144 185 201 209 203 210 172 201 211 201 196 209 185 185 134 146 156 249 143 131 231 104 307 218 272 268 263 260 252 256 251
202 208 195 181 182 188 168 160 173 168 192 198 257 300 125 183 144 172 207 216 213 171 162 196 193 178 175 126 79 82 56 82 104 149 138 146 133 88 264 190 51 309 250 244 236 232 227
217 213 206 202 199 193 181 176 178 183 183 135 237 164 106 237 185 199 178 201 208 201 195 149 111 128 151 120 82 46 43 29 30 235 175 142 118 122 219 48 235 243 274 208 205 233 195
224 219 218 213 207 204 203 198 193 196 198 134 196 131 139 188 161 222 139 118 99 64 107 112 31 89 135 91 71 36 350 8 267 220 211 183 155 138 173 202 298 296 253 202 190 275 170
224 224 224 216 216 208 200 206 212 202 199 121 169 130 112 108 237 142 159 165 153 134 56 71 7 348 75 97 97 153 199 203 272 308 187 175 178 172 121 192 206 234 178 144 112 269 224
229 230 221 222 223 220 217 216 211 202 200 152 189 148 93 117 262 181 167 184 139 127 121 123 183 38 29 107 108 155 227 184 193 176 183 111 43 213 222 230 276 240 210 141 102 260 202
236 228 225 228 226 224 219 215 214 209 213 157 202 164 132 154 283 210 226 147 118 122 145 203 75 335 50 110 139 200 176 215 155 202 177 157 168 202 90 117 265 186 77 158 215 194 179
240 234 233 232 226 229 223 212 209 212 217 190 184 167 125 133 234 290 285 287 178 179 131 226 156 160 165 118 212 118 244 75 154 232 173 247 200 181 183 202 216 194 193 221 175 173 203